Погода в Мобиле

США     30°41′39″N   88°02′34″W
темп.,
°C
ветер,
м/с
пор.,
м/с
влажн.,
%
обл.,
%
осадки,
мм/ч
давл.,
гПа
погр.,
м
7 июля, чт
чт701:00+27юз24820 1.6 1015162
04:00+26з13853 0.0 1015118
07:00+26зсз12845 0.0 1016155
10:00+32зсз12575 0.0 10171138
13:00+35ю224483 0.0 10162152
16:00+31ююз456092 0.0 1015594
19:00+31ююз246275 0.0 1015651
22:00+28юз367730 0.3 1015234
8 июля, пт
пт801:00+27зюз12810 0.3 1015124
04:00+26юз12835 0.0 101577
07:00+27зюз12836 0.0 1017139
10:00+33зюз225514 0.0 10181168
13:00+35ююв33445 0.0 10171990
16:00+33ю555442 0.0 1016879
19:00+32ююз35595 0.0 1015829
22:00+29юз36725 0.0 1017333
9 июля, сб
сб901:00+28юз25795 0.0 1017224
04:00+27юз268539 0.0 1016311
07:00+27зюз26919 1.0 1017229
10:00+31зюз34676 0.9 1018901
13:00+35юз324835 1.7 10171860
16:00+34ююв445338 0.0 10161527
19:00+30ююз466826 1.1 1014605
22:00+28юз3678100 0.3 1015282
10 июля, вс
вс1001:00+28ююз3881100 0.3 1014302
04:00+24с2396100 5.9 1015140
07:00+25зюз2493100 6.3 1013202
10:00+30сз356858 0.0 1014895
13:00+35сз244795 0.4 10131994
16:00+32юз1259100 0.6 1012684
19:00+31ююз1265100 0.8 1011364
22:00+28юз237894 1.0 1012173
11 июля, пн
пн1101:00+27зюз118277 2.9 101219
04:00+26сз1289100 0.1 101145
07:00+26сз0187100 2.6 101235
10:00+31з0158100 1.4 1012720
13:00+32ююв2251100 1.4 10121397
16:00+29ю4572100 2.6 1011697
19:00+27ююз3576100 2.8 1012561
22:00+26ю2588100 3.9 1013255